• în România
  • Lista ţărilor
  • Pe 7 zile
  • Temperatura apei
  • Hartă satelitară
  • Meteo pe hartă
  • Widget-uri
  • user-avatar
    Intrare

    Meteo pe oră la Nha Trang

    Astăzi, 25 Mai, Vineri

    Timp Temperatura Precipitaţii Vânt Presiune Umiditate
    00:00 +27°C° 0,7 mm 1 m/s 746 mmHg 93%
    01:00 +27°C° 0 mm 1 m/s 747 mmHg 92%
    02:00 +27°C° 0,1 mm 1 m/s 746 mmHg 91%
    03:00 +27°C° 0,1 mm 1 m/s 746 mmHg 91%
    04:00 +26°C° 0,1 mm 1 m/s 746 mmHg 90%
    05:00 +28°C° 0 mm 1 m/s 746 mmHg 85%
    06:00 +29°C° 0 mm 1 m/s 746 mmHg 81%
    07:00 +30°C° 0 mm 1 m/s 747 mmHg 74%
    08:00 +32°C° 0 mm 1 m/s 747 mmHg 65%
    09:00 +34°C° 0 mm 1 m/s 747 mmHg 56%
    10:00 +37°C° 0 mm 1 m/s 746 mmHg 47%
    11:00 +37°C° 0,1 mm 1 m/s 746 mmHg 49%
    12:00 +38°C° 0,1 mm 2 m/s 746 mmHg 50%
    13:00 +38°C° 0,1 mm 2 m/s 745 mmHg 51%
    14:00 +37°C° 0,3 mm 2 m/s 745 mmHg 55%
    15:00 +36°C° 0,3 mm 2 m/s 745 mmHg 59%
    16:00 +35°C° 0,3 mm 3 m/s 745 mmHg 62%
    17:00 +32°C° 0,1 mm 2 m/s 745 mmHg 70%
    18:00 +30°C° 0,1 mm 1 m/s 745 mmHg 78%
    19:00 +29°C° 0,1 mm 1 m/s 745 mmHg 86%
    20:00 +29°C° 0 mm 1 m/s 745 mmHg 87%
    21:00 +28°C° 0 mm 1 m/s 746 mmHg 88%
    22:00 +28°C° 0 mm 1 m/s 746 mmHg 89%
    23:00 +28°C° 0 mm 1 m/s 746 mmHg 89%

    Mâine, 26 Mai, Sâmbătă

    Timp Temperatura Precipitaţii Vânt Presiune Umiditate
    00:00 +28°C° 0 mm 1 m/s 746 mmHg 89%
    01:00 +27°C° 0 mm 1 m/s 745 mmHg 89%
    02:00 +27°C° 0 mm 1 m/s 745 mmHg 89%
    03:00 +27°C° 0 mm 1 m/s 745 mmHg 90%
    04:00 +27°C° 0 mm 1 m/s 745 mmHg 90%
    05:00 +28°C° 0 mm 1 m/s 746 mmHg 84%
    06:00 +29°C° 0 mm 1 m/s 746 mmHg 78%
    07:00 +31°C° 0 mm 1 m/s 747 mmHg 72%
    08:00 +33°C° 0 mm 1 m/s 747 mmHg 63%
    09:00 +35°C° 0 mm 1 m/s 747 mmHg 54%
    10:00 +38°C° 0 mm 2 m/s 747 mmHg 45%
    11:00 +38°C° 0,1 mm 2 m/s 746 mmHg 45%
    12:00 +39°C° 0,1 mm 2 m/s 746 mmHg 44%
    13:00 +39°C° 0,1 mm 3 m/s 746 mmHg 43%
    14:00 +38°C° 0,3 mm 3 m/s 745 mmHg 47%
    15:00 +37°C° 0,3 mm 3 m/s 745 mmHg 51%
    16:00 +36°C° 0,3 mm 3 m/s 745 mmHg 55%
    17:00 +34°C° 0,1 mm 3 m/s 745 mmHg 64%
    18:00 +31°C° 0,1 mm 2 m/s 745 mmHg 73%
    19:00 +29°C° 0,1 mm 2 m/s 745 mmHg 82%
    20:00 +29°C° 0,1 mm 2 m/s 746 mmHg 84%
    21:00 +29°C° 0,1 mm 2 m/s 746 mmHg 86%
    22:00 +28°C° 0,1 mm 2 m/s 747 mmHg 87%
    23:00 +28°C° 0,1 mm 2 m/s 747 mmHg 87%

    Poimâine, 27 Mai, Duminică

    Timp Temperatura Precipitaţii Vânt Presiune Umiditate
    00:00 +28°C° 0,1 mm 2 m/s 747 mmHg 87%
    01:00 +28°C° 0,1 mm 2 m/s 746 mmHg 87%
    02:00 +27°C° 0 mm 1 m/s 746 mmHg 87%
    03:00 +27°C° 0 mm 1 m/s 746 mmHg 87%
    04:00 +27°C° 0 mm 1 m/s 746 mmHg 87%
    05:00 +28°C° 0 mm 1 m/s 746 mmHg 81%
    06:00 +30°C° 0 mm 1 m/s 746 mmHg 75%
    07:00 +31°C° 0 mm 1 m/s 747 mmHg 69%
    08:00 +33°C° 0 mm 1 m/s 747 mmHg 60%
    09:00 +36°C° 0 mm 1 m/s 747 mmHg 51%
    10:00 +39°C° 0 mm 1 m/s 747 mmHg 41%
    11:00 +39°C° 0,1 mm 2 m/s 747 mmHg 41%
    12:00 +39°C° 0,1 mm 3 m/s 746 mmHg 42%
    13:00 +39°C° 0,1 mm 3 m/s 746 mmHg 42%
    14:00 +38°C° 0,1 mm 3 m/s 745 mmHg 46%
    15:00 +37°C° 0,1 mm 3 m/s 745 mmHg 51%
    16:00 +36°C° 0,1 mm 3 m/s 744 mmHg 56%
    17:00 +34°C° 0,1 mm 3 m/s 745 mmHg 66%
    18:00 +31°C° 0,1 mm 2 m/s 745 mmHg 76%
    19:00 +29°C° 0,1 mm 1 m/s 746 mmHg 86%
    20:00 +28°C° 0 mm 1 m/s 746 mmHg 88%
    21:00 +28°C° 0 mm 1 m/s 747 mmHg 90%
    22:00 +28°C° 0 mm 1 m/s 747 mmHg 92%
    23:00 +27°C° 0 mm 1 m/s 747 mmHg 91%

    28 Mai, Luni

    Timp Temperatura Precipitaţii Vânt Presiune Umiditate
    00:00 +27°C° 0 mm 1 m/s 746 mmHg 90%
    01:00 +27°C° 0 mm 1 m/s 746 mmHg 89%
    02:00 +27°C° 0 mm 1 m/s 746 mmHg 88%
    03:00 +27°C° 0 mm 1 m/s 746 mmHg 87%
    04:00 +27°C° 0 mm 1 m/s 745 mmHg 86%
    05:00 +28°C° 0 mm 1 m/s 746 mmHg 80%
    06:00 +30°C° 0 mm 1 m/s 746 mmHg 74%
    07:00 +31°C° 0 mm 1 m/s 747 mmHg 67%
    08:00 +33°C° 0 mm 1 m/s 747 mmHg 58%
    09:00 +36°C° 0 mm 1 m/s 747 mmHg 49%
    10:00 +39°C° 0 mm 2 m/s 748 mmHg 40%
    11:00 +39°C° 0,1 mm 2 m/s 747 mmHg 42%
    12:00 +39°C° 0,1 mm 3 m/s 746 mmHg 44%
    13:00 +39°C° 0,1 mm 3 m/s 746 mmHg 46%
    14:00 +38°C° 0,1 mm 3 m/s 746 mmHg 50%
    15:00 +37°C° 0,1 mm 3 m/s 745 mmHg 53%
    16:00 +36°C° 0,1 mm 3 m/s 745 mmHg 57%
    17:00 +34°C° 0,1 mm 3 m/s 745 mmHg 67%
    18:00 +31°C° 0,1 mm 2 m/s 745 mmHg 76%
    19:00 +29°C° 0,1 mm 2 m/s 746 mmHg 85%
    20:00 +29°C° 0 mm 2 m/s 746 mmHg 87%
    21:00 +28°C° 0 mm 2 m/s 746 mmHg 89%
    22:00 +28°C° 0 mm 2 m/s 747 mmHg 91%
    23:00 +28°C° 0 mm 2 m/s 746 mmHg 91%

    29 Mai, Marţi

    Timp Temperatura Precipitaţii Vânt Presiune Umiditate
    00:00 +27°C° 0 mm 2 m/s 746 mmHg 91%
    01:00 +27°C° 0 mm 2 m/s 746 mmHg 90%
    02:00 +27°C° 0 mm 2 m/s 746 mmHg 90%
    03:00 +27°C° 0 mm 2 m/s 746 mmHg 90%
    04:00 +27°C° 0 mm 1 m/s 746 mmHg 89%
    05:00 +28°C° 0 mm 1 m/s 746 mmHg 83%
    06:00 +29°C° 0 mm 1 m/s 747 mmHg 77%
    07:00 +31°C° 0 mm 1 m/s 747 mmHg 71%
    08:00 +33°C° 0 mm 1 m/s 747 mmHg 61%
    09:00 +36°C° 0 mm 2 m/s 747 mmHg 51%
    10:00 +39°C° 0 mm 2 m/s 747 mmHg 42%
    11:00 +39°C° 0,1 mm 2 m/s 747 mmHg 42%
    12:00 +39°C° 0,1 mm 3 m/s 746 mmHg 43%
    13:00 +39°C° 0,1 mm 3 m/s 745 mmHg 44%
    14:00 +38°C° 0,2 mm 3 m/s 745 mmHg 49%
    15:00 +37°C° 0,2 mm 3 m/s 744 mmHg 54%
    16:00 +36°C° 0,2 mm 3 m/s 744 mmHg 59%
    17:00 +34°C° 0,1 mm 3 m/s 744 mmHg 68%
    18:00 +31°C° 0,1 mm 3 m/s 745 mmHg 77%
    19:00 +29°C° 0,1 mm 2 m/s 745 mmHg 86%
    20:00 +29°C° 0 mm 2 m/s 746 mmHg 87%
    21:00 +28°C° 0 mm 2 m/s 746 mmHg 89%
    22:00 +28°C° 0 mm 2 m/s 747 mmHg 91%
    23:00 +28°C° 0 mm 2 m/s 746 mmHg 91%

    30 Mai, Miercuri

    Timp Temperatura Precipitaţii Vânt Presiune Umiditate
    00:00 +28°C° 0 mm 2 m/s 746 mmHg 91%
    01:00 +27°C° 0 mm 2 m/s 746 mmHg 91%
    02:00 +27°C° 0 mm 2 m/s 746 mmHg 91%
    03:00 +27°C° 0 mm 2 m/s 746 mmHg 91%
    04:00 +27°C° 0 mm 2 m/s 746 mmHg 90%
    05:00 +28°C° 0 mm 2 m/s 746 mmHg 84%
    06:00 +30°C° 0 mm 1 m/s 747 mmHg 77%
    07:00 +31°C° 0 mm 1 m/s 747 mmHg 71%
    08:00 +34°C° 0 mm 1 m/s 747 mmHg 63%
    09:00 +37°C° 0 mm 2 m/s 747 mmHg 54%
    10:00 +39°C° 0 mm 2 m/s 747 mmHg 46%
    11:00 +39°C° 0,2 mm 2 m/s 746 mmHg 45%
    12:00 +39°C° 0,2 mm 3 m/s 746 mmHg 45%
    13:00 +39°C° 0,2 mm 3 m/s 745 mmHg 45%
    14:00 +38°C° 0,2 mm 3 m/s 745 mmHg 48%
    15:00 +37°C° 0,2 mm 3 m/s 745 mmHg 52%
    16:00 +36°C° 0,2 mm 3 m/s 744 mmHg 56%
    17:00 +34°C° 0,1 mm 3 m/s 745 mmHg 64%
    18:00 +31°C° 0,1 mm 3 m/s 745 mmHg 73%
    19:00 +29°C° 0,1 mm 2 m/s 746 mmHg 82%
    20:00 +29°C° 0 mm 2 m/s 746 mmHg 84%
    21:00 +28°C° 0 mm 2 m/s 747 mmHg 86%
    22:00 +28°C° 0 mm 2 m/s 747 mmHg 88%
    23:00 +28°C° 0 mm 2 m/s 747 mmHg 89%
    Arată mai mult